Time,TemperatureF,DewpointF,PressureIn,WindDirection,WindDirectionDegrees,WindSpeedMPH,WindSpeedGustMPH,Humidity,HourlyPrecipIn,Conditions,Clouds,dailyrainin,SoftwareType,DateUTC
2013-03-13 00:00:00,30.8,29.0,30.00,SSW,206,0.0,0.0,93,0.00,,,0.01,Wunderground v.1.15,2013-03-13 04:00:00,
2013-03-13 00:01:00,30.8,29.0,30.00,SSW,206,0.0,0.0,93,0.00,,,0.01,Wunderground v.1.15,2013-03-13 04:01:00,
2013-03-13 00:02:00,30.8,29.0,30.00,SSW,206,0.0,0.0,93,0.00,,,0.01,Wunderground v.1.15,2013-03-13 04:02:00,
2013-03-13 00:07:00,30.9,29.1,30.00,SSW,206,0.0,0.0,93,0.00,,,0.01,Wunderground v.1.15,2013-03-13 04:07:00,
2013-03-13 00:13:00,30.9,29.1,30.00,SSW,206,0.0,0.0,93,0.00,,,0.00,Wunderground v.1.15,2013-03-13 04:13:00,
2013-03-13 00:14:00,30.9,29.1,30.00,SSW,206,0.0,0.0,93,0.00,,,0.00,Wunderground v.1.15,2013-03-13 04:14:00,
2013-03-13 00:20:00,31.0,29.2,30.00,SSW,206,0.0,0.0,93,0.00,,,0.00,Wunderground v.1.15,2013-03-13 04:20:00,
2013-03-13 00:26:00,31.1,29.3,30.00,SSW,206,0.0,0.0,93,0.00,,,0.00,Wunderground v.1.15,2013-03-13 04:26:00,
2013-03-13 00:31:00,31.1,29.3,30.00,SSW,206,0.0,0.0,93,0.00,,,0.00,Wunderground v.1.15,2013-03-13 04:31:00,
2013-03-13 00:36:00,31.1,29.3,30.00,SSW,206,0.0,0.0,93,0.00,,,0.00,Wunderground v.1.15,2013-03-13 04:36:00,
2013-03-13 00:42:00,31.3,29.5,30.00,SSW,206,0.0,0.0,93,0.00,,,0.00,Wunderground v.1.15,2013-03-13 04:42:00,
2013-03-13 00:47:00,31.5,29.7,30.00,WSW,255,0.0,1.0,93,0.00,,,0.00,Wunderground v.1.15,2013-03-13 04:47:00,
2013-03-13 00:53:00,31.8,30.3,30.01,West,275,0.0,0.0,94,0.00,,,0.00,Wunderground v.1.15,2013-03-13 04:53:00,
2013-03-13 00:59:00,32.0,30.2,30.00,West,275,0.0,0.0,93,0.00,,,0.00,Wunderground v.1.15,2013-03-13 04:59:00,
2013-03-13 01:04:00,32.1,30.3,30.00,West,271,0.0,0.0,93,0.00,,,0.00,Wunderground v.1.15,2013-03-13 05:04:00,
2013-03-13 01:10:00,32.1,30.3,30.00,West,263,0.0,0.0,93,0.00,,,0.00,Wunderground v.1.15,2013-03-13 05:10:00,
2013-03-13 01:16:00,32.2,30.4,29.99,SW,229,0.0,0.0,93,0.00,,,0.00,Wunderground v.1.15,2013-03-13 05:16:00,
2013-03-13 01:21:00,32.3,30.5,29.99,WSW,244,0.0,0.0,93,0.00,,,0.00,Wunderground v.1.15,2013-03-13 05:21:00,
2013-03-13 01:27:00,32.3,30.5,29.99,SW,224,0.0,2.0,93,0.00,,,0.00,Wunderground v.1.15,2013-03-13 05:27:00,
2013-03-13 01:32:00,32.3,30.5,30.00,SW,215,0.0,0.0,93,0.00,,,0.00,Wunderground v.1.15,2013-03-13 05:32:00,
2013-03-13 01:38:00,32.3,30.5,30.00,SW,221,0.0,0.0,93,0.00,,,0.00,Wunderground v.1.15,2013-03-13 05:38:00,
2013-03-13 01:44:00,32.3,30.5,30.00,SSW,207,0.0,1.0,93,0.00,,,0.00,Wunderground v.1.15,2013-03-13 05:44:00,
2013-03-13 01:49:00,32.3,30.2,30.00,SSW,196,0.0,5.0,92,0.00,,,0.00,Wunderground v.1.15,2013-03-13 05:49:00,
2013-03-13 01:55:00,32.3,30.2,30.00,West,273,1.0,3.0,92,0.00,,,0.00,Wunderground v.1.15,2013-03-13 05:55:00,
2013-03-13 02:00:00,32.3,30.2,30.00,WNW,288,0.0,0.0,92,0.00,,,0.00,Wunderground v.1.15,2013-03-13 06:00:00,
2013-03-13 02:06:00,32.3,30.2,30.00,WNW,288,0.0,0.0,92,0.00,,,0.00,Wunderground v.1.15,2013-03-13 06:06:00,
2013-03-13 02:11:00,32.4,30.3,30.00,WNW,292,0.0,0.0,92,0.00,,,0.00,Wunderground v.1.15,2013-03-13 06:11:00,
2013-03-13 02:17:00,32.3,30.2,29.99,SW,224,0.0,0.0,92,0.00,,,0.00,Wunderground v.1.15,2013-03-13 06:17:00,
2013-03-13 02:24:00,32.1,29.8,29.99,West,279,0.0,3.0,91,0.00,,,0.00,Wunderground v.1.15,2013-03-13 06:24:00,
2013-03-13 02:29:00,31.9,29.6,29.99,West,279,0.0,3.0,91,0.00,,,0.00,Wunderground v.1.15,2013-03-13 06:29:00,
2013-03-13 02:35:00,31.6,29.0,29.99,WNW,288,0.0,2.0,90,0.00,,,0.00,Wunderground v.1.15,2013-03-13 06:35:00,
2013-03-13 02:40:00,31.4,28.5,29.99,WNW,283,1.0,1.0,89,0.00,,,0.00,Wunderground v.1.15,2013-03-13 06:40:00,
2013-03-13 02:45:00,31.2,28.3,29.99,WSW,254,0.0,1.0,89,0.00,,,0.00,Wunderground v.1.15,2013-03-13 06:45:00,
2013-03-13 02:51:00,31.0,27.9,29.99,WNW,296,0.0,0.0,88,0.00,,,0.00,Wunderground v.1.15,2013-03-13 06:51:00,
2013-03-13 02:57:00,30.8,27.7,29.99,WNW,302,0.0,1.0,88,0.00,,,0.00,Wunderground v.1.15,2013-03-13 06:57:00,
2013-03-13 03:02:00,30.8,27.7,29.99,NW,307,0.0,0.0,88,0.00,,,0.00,Wunderground v.1.15,2013-03-13 07:02:00,
2013-03-13 03:08:00,30.9,27.8,29.99,NW,308,1.0,2.0,88,0.00,,,0.00,Wunderground v.1.15,2013-03-13 07:08:00,
2013-03-13 03:14:00,31.0,27.9,29.99,NW,308,0.0,1.0,88,0.00,,,0.00,Wunderground v.1.15,2013-03-13 07:14:00,
2013-03-13 03:20:00,31.1,28.0,29.99,NW,308,0.0,0.0,88,0.00,,,0.00,Wunderground v.1.15,2013-03-13 07:20:00,
2013-03-13 12:04:00,29.8,23.8,30.10,NW,313,5.0,10.0,78,0.00,,,0.00,Wunderground v.1.15,2013-03-13 16:04:00,
2013-03-13 12:09:00,30.0,23.4,30.10,West,279,7.0,7.0,76,0.00,,,0.00,Wunderground v.1.15,2013-03-13 16:09:00,
2013-03-13 12:14:00,30.5,23.8,30.10,NW,314,8.0,13.0,76,0.00,,,0.00,Wunderground v.1.15,2013-03-13 16:14:00,
2013-03-13 12:20:00,31.0,24.0,30.10,NW,319,7.0,7.0,75,0.00,,,0.00,Wunderground v.1.15,2013-03-13 16:20:00,
2013-03-13 12:25:00,31.3,23.3,30.10,NW,304,6.0,8.0,72,0.00,,,0.00,Wunderground v.1.15,2013-03-13 16:25:00,
2013-03-13 12:30:00,31.2,22.9,30.10,WNW,300,6.0,10.0,71,0.00,,,0.00,Wunderground v.1.15,2013-03-13 16:30:00,
2013-03-13 12:35:00,31.0,23.7,30.11,West,280,7.0,10.0,74,0.00,,,0.00,Wunderground v.1.15,2013-03-13 16:35:00,
2013-03-13 12:41:00,31.1,24.7,30.11,WNW,287,4.0,5.0,77,0.00,,,0.00,Wunderground v.1.15,2013-03-13 16:41:00,
2013-03-13 12:47:00,31.1,25.0,30.11,WNW,290,4.0,7.0,78,0.00,,,0.00,Wunderground v.1.15,2013-03-13 16:47:00,
2013-03-13 12:53:00,32.1,25.7,30.11,NW,309,6.0,11.0,77,0.00,,,0.00,Wunderground v.1.15,2013-03-13 16:53:00,
2013-03-13 12:59:00,32.1,25.1,30.11,NW,311,7.0,10.0,75,0.00,,,0.00,Wunderground v.1.15,2013-03-13 16:59:00,
2013-03-13 13:05:00,31.7,24.7,30.11,NW,311,8.0,11.0,75,0.00,,,0.00,Wunderground v.1.15,2013-03-13 17:05:00,
2013-03-13 13:11:00,30.2,25.1,30.11,NW,304,8.0,11.0,81,0.00,,,0.00,Wunderground v.1.15,2013-03-13 17:11:00,
2013-03-13 13:17:00,29.8,25.0,30.11,NW,325,8.0,11.0,82,0.00,,,0.00,Wunderground v.1.15,2013-03-13 17:17:00,
2013-03-13 13:22:00,30.0,23.7,30.12,NW,307,7.0,8.0,77,0.00,,,0.00,Wunderground v.1.15,2013-03-13 17:22:00,
2013-03-13 13:28:00,30.3,24.3,30.12,NW,313,8.0,9.0,78,0.00,,,0.00,Wunderground v.1.15,2013-03-13 17:28:00,
2013-03-13 13:33:00,29.9,24.2,30.13,NW,323,8.0,9.0,79,0.00,,,0.00,Wunderground v.1.15,2013-03-13 17:33:00,
2013-03-13 13:38:00,29.2,24.4,30.13,WNW,302,9.0,10.0,82,0.00,,,0.00,Wunderground v.1.15,2013-03-13 17:38:00,
2013-03-13 13:44:00,28.8,24.9,30.13,NNW,331,9.0,9.0,85,0.00,,,0.00,Wunderground v.1.15,2013-03-13 17:44:00,
2013-03-13 13:49:00,28.5,24.6,30.13,NW,306,8.0,9.0,85,0.00,,,0.00,Wunderground v.1.15,2013-03-13 17:49:00,
2013-03-13 13:55:00,28.4,24.7,30.13,NW,320,6.0,8.0,86,0.00,,,0.00,Wunderground v.1.15,2013-03-13 17:55:00,
2013-03-13 14:00:00,28.3,24.6,30.13,NW,311,5.0,9.0,86,0.00,,,0.00,Wunderground v.1.15,2013-03-13 18:00:00,
2013-03-13 14:06:00,28.5,24.6,30.14,WNW,298,5.0,9.0,85,0.00,,,0.00,Wunderground v.1.15,2013-03-13 18:06:00,
2013-03-13 14:12:00,28.5,23.7,30.13,WNW,295,5.0,10.0,82,0.00,,,0.00,Wunderground v.1.15,2013-03-13 18:12:00,
2013-03-13 14:17:00,29.1,24.0,30.13,NW,313,6.0,10.0,81,0.00,,,0.00,Wunderground v.1.15,2013-03-13 18:17:00,
2013-03-13 14:23:00,30.2,24.2,30.13,WNW,302,5.0,6.0,78,0.00,,,0.00,Wunderground v.1.15,2013-03-13 18:23:00,
2013-03-13 14:29:00,31.5,24.8,30.13,WNW,293,7.0,13.0,76,0.00,,,0.00,Wunderground v.1.15,2013-03-13 18:29:00,
2013-03-13 14:34:00,31.9,24.6,30.13,NW,322,7.0,9.0,74,0.00,,,0.00,Wunderground v.1.15,2013-03-13 18:34:00,
2013-03-13 14:39:00,32.8,25.7,30.13,WNW,302,5.0,9.0,75,0.00,,,0.00,Wunderground v.1.15,2013-03-13 18:39:00,
2013-03-13 14:45:00,33.7,25.6,30.13,NW,306,5.0,9.0,72,0.00,,,0.00,Wunderground v.1.15,2013-03-13 18:45:00,
2013-03-13 14:50:00,32.4,25.4,30.13,NW,306,8.0,11.0,75,0.00,,,0.00,Wunderground v.1.15,2013-03-13 18:50:00,
2013-03-13 14:56:00,30.3,24.9,30.13,NW,323,11.0,12.0,80,0.00,,,0.01,Wunderground v.1.15,2013-03-13 18:56:00,
2013-03-13 15:02:00,29.8,23.8,30.13,NNW,327,8.0,21.0,78,0.00,,,0.01,Wunderground v.1.15,2013-03-13 19:02:00,
2013-03-13 15:08:00,30.1,23.4,30.13,NW,304,11.0,21.0,76,0.00,,,0.01,Wunderground v.1.15,2013-03-13 19:08:00,
2013-03-13 15:14:00,30.6,23.6,30.13,NW,305,9.0,12.0,75,0.00,,,0.01,Wunderground v.1.15,2013-03-13 19:14:00,
2013-03-13 15:19:00,30.8,23.5,30.13,NW,306,7.0,12.0,74,0.00,,,0.01,Wunderground v.1.15,2013-03-13 19:19:00,
2013-03-13 15:25:00,30.9,23.9,30.14,NW,309,7.0,11.0,75,0.00,,,0.01,Wunderground v.1.15,2013-03-13 19:25:00,
2013-03-13 15:30:00,30.8,23.8,30.14,NW,311,7.0,9.0,75,0.00,,,0.01,Wunderground v.1.15,2013-03-13 19:30:00,
2013-03-13 15:36:00,30.6,23.3,30.14,WNW,292,7.0,12.0,74,0.00,,,0.01,Wunderground v.1.15,2013-03-13 19:36:00,
2013-03-13 15:42:00,30.7,23.1,30.14,NW,310,7.0,8.0,73,0.00,,,0.01,Wunderground v.1.15,2013-03-13 19:42:00,
2013-03-13 15:48:00,31.5,23.8,30.14,NW,321,6.0,10.0,73,0.00,,,0.01,Wunderground v.1.15,2013-03-13 19:48:00,
2013-03-13 15:54:00,32.0,23.0,30.14,WNW,298,6.0,6.0,69,0.00,,,0.01,Wunderground v.1.15,2013-03-13 19:54:00,
2013-03-13 15:59:00,31.6,22.6,30.15,NW,306,6.0,8.0,69,0.00,,,0.01,Wunderground v.1.15,2013-03-13 19:59:00,
2013-03-13 16:05:00,30.7,23.7,30.15,NW,324,8.0,11.0,75,0.00,,,0.01,Wunderground v.1.15,2013-03-13 20:05:00,
2013-03-13 16:11:00,30.6,23.6,30.15,NW,309,9.0,9.0,75,0.00,,,0.01,Wunderground v.1.15,2013-03-13 20:11:00,
2013-03-13 16:16:00,30.9,24.2,30.15,WNW,296,8.0,9.0,76,0.00,,,0.02,Wunderground v.1.15,2013-03-13 20:16:00,
2013-03-13 16:21:00,30.7,23.1,30.16,NW,319,9.0,13.0,73,0.00,,,0.02,Wunderground v.1.15,2013-03-13 20:21:00,
2013-03-13 16:27:00,30.3,23.0,30.16,NW,310,10.0,13.0,74,0.00,,,0.02,Wunderground v.1.15,2013-03-13 20:27:00,
2013-03-13 16:33:00,30.5,22.5,30.16,NW,311,8.0,13.0,72,0.00,,,0.02,Wunderground v.1.15,2013-03-13 20:33:00,
2013-03-13 16:39:00,30.3,22.4,30.17,WNW,299,9.0,13.0,72,0.00,,,0.02,Wunderground v.1.15,2013-03-13 20:39:00,
2013-03-13 16:44:00,29.8,21.5,30.17,West,281,10.0,11.0,71,0.00,,,0.02,Wunderground v.1.15,2013-03-13 20:44:00,
2013-03-13 16:50:00,29.7,21.8,30.17,NW,304,8.0,9.0,72,0.00,,,0.02,Wunderground v.1.15,2013-03-13 20:50:00,
2013-03-13 16:56:00,29.9,22.0,30.17,WNW,294,8.0,10.0,72,0.00,,,0.02,Wunderground v.1.15,2013-03-13 20:56:00,
2013-03-13 17:02:00,29.7,21.8,30.18,NW,307,8.0,11.0,72,0.00,,,0.02,Wunderground v.1.15,2013-03-13 21:02:00,
2013-03-13 17:08:00,29.7,21.8,30.18,WNW,294,7.0,11.0,72,0.00,,,0.02,Wunderground v.1.15,2013-03-13 21:08:00,
2013-03-13 17:13:00,29.8,22.2,30.18,NW,311,6.0,7.0,73,0.00,,,0.02,Wunderground v.1.15,2013-03-13 21:13:00,
2013-03-13 17:19:00,29.9,21.6,30.18,NW,304,6.0,11.0,71,0.00,,,0.02,Wunderground v.1.15,2013-03-13 21:19:00,
2013-03-13 17:24:00,29.8,21.9,30.18,WNW,302,7.0,9.0,72,0.00,,,0.02,Wunderground v.1.15,2013-03-13 21:24:00,
2013-03-13 17:29:00,29.7,22.1,30.19,WNW,302,8.0,12.0,73,0.00,,,0.02,Wunderground v.1.15,2013-03-13 21:29:00,
2013-03-13 17:35:00,29.2,21.9,30.19,WNW,302,7.0,10.0,74,0.00,,,0.02,Wunderground v.1.15,2013-03-13 21:35:00,
2013-03-13 17:40:00,29.1,21.8,30.19,WNW,301,7.0,8.0,74,0.00,,,0.02,Wunderground v.1.15,2013-03-13 21:40:00,
2013-03-13 17:46:00,29.1,21.8,30.19,WNW,287,7.0,12.0,74,0.00,,,0.02,Wunderground v.1.15,2013-03-13 21:46:00,
2013-03-13 17:51:00,29.2,21.6,30.20,WNW,290,5.0,6.0,73,0.00,,,0.02,Wunderground v.1.15,2013-03-13 21:51:00,
2013-03-13 17:57:00,29.2,22.3,30.19,NW,311,4.0,7.0,75,0.00,,,0.02,Wunderground v.1.15,2013-03-13 21:57:00,
2013-03-13 18:03:00,29.0,22.1,30.20,West,271,6.0,8.0,75,0.00,,,0.02,Wunderground v.1.15,2013-03-13 22:03:00,
2013-03-13 18:08:00,28.7,22.7,30.20,NW,306,6.0,8.0,78,0.00,,,0.02,Wunderground v.1.15,2013-03-13 22:08:00,
2013-03-13 18:13:00,28.5,22.2,30.20,WNW,303,5.0,6.0,77,0.00,,,0.02,Wunderground v.1.15,2013-03-13 22:13:00,
2013-03-13 18:19:00,28.5,21.6,30.20,NW,313,5.0,10.0,75,0.00,,,0.02,Wunderground v.1.15,2013-03-13 22:19:00,
2013-03-13 18:25:00,28.7,22.1,30.20,WNW,302,6.0,9.0,76,0.00,,,0.02,Wunderground v.1.15,2013-03-13 22:25:00,
2013-03-13 18:31:00,28.4,22.1,30.20,WNW,296,7.0,11.0,77,0.00,,,0.02,Wunderground v.1.15,2013-03-13 22:31:00,
2013-03-13 18:37:00,28.4,22.4,30.21,NW,306,7.0,11.0,78,0.00,,,0.02,Wunderground v.1.15,2013-03-13 22:37:00,
2013-03-13 18:42:00,28.3,22.0,30.21,NW,308,5.0,6.0,77,0.00,,,0.02,Wunderground v.1.15,2013-03-13 22:42:00,
2013-03-13 18:48:00,28.3,21.7,30.21,WNW,298,4.0,7.0,76,0.00,,,0.02,Wunderground v.1.15,2013-03-13 22:48:00,
2013-03-13 18:54:00,28.3,21.4,30.21,NW,304,5.0,9.0,75,0.00,,,0.02,Wunderground v.1.15,2013-03-13 22:54:00,
2013-03-13 18:59:00,28.0,21.1,30.21,WNW,298,7.0,10.0,75,0.00,,,0.02,Wunderground v.1.15,2013-03-13 22:59:00,
2013-03-13 19:05:00,28.0,21.4,30.21,NW,312,6.0,7.0,76,0.00,,,0.02,Wunderground v.1.15,2013-03-13 23:05:00,
2013-03-13 19:11:00,28.0,21.4,30.22,WNW,303,4.0,7.0,76,0.00,,,0.02,Wunderground v.1.15,2013-03-13 23:11:00,
2013-03-13 19:16:00,28.0,21.4,30.22,WNW,303,5.0,9.0,76,0.00,,,0.02,Wunderground v.1.15,2013-03-13 23:16:00,
2013-03-13 19:21:00,28.0,21.4,30.22,WNW,299,5.0,8.0,76,0.00,,,0.02,Wunderground v.1.15,2013-03-13 23:21:00,
2013-03-13 19:27:00,27.9,20.7,30.22,NW,321,6.0,12.0,74,0.00,,,0.02,Wunderground v.1.15,2013-03-13 23:27:00,
2013-03-13 19:32:00,27.8,21.2,30.22,NW,307,8.0,8.0,76,0.00,,,0.02,Wunderground v.1.15,2013-03-13 23:32:00,
2013-03-13 19:38:00,27.6,21.0,30.23,NW,311,7.0,9.0,76,0.00,,,0.02,Wunderground v.1.15,2013-03-13 23:38:00,
2013-03-13 19:44:00,27.6,21.0,30.23,NW,307,7.0,7.0,76,0.00,,,0.02,Wunderground v.1.15,2013-03-13 23:44:00,
2013-03-13 19:49:00,27.6,21.0,30.23,NW,309,6.0,10.0,76,0.00,,,0.02,Wunderground v.1.15,2013-03-13 23:49:00,
2013-03-13 19:55:00,27.6,21.0,30.23,WNW,299,6.0,10.0,76,0.00,,,0.02,Wunderground v.1.15,2013-03-13 23:55:00,
2013-03-13 20:00:00,27.6,20.7,30.23,NW,314,4.0,4.0,75,0.00,,,0.02,Wunderground v.1.15,2013-03-14 00:00:00,
2013-03-13 20:06:00,27.6,20.7,30.23,WNW,288,3.0,5.0,75,0.00,,,0.02,Wunderground v.1.15,2013-03-14 00:06:00,
2013-03-13 20:11:00,27.6,20.7,30.23,NW,311,5.0,5.0,75,0.00,,,0.02,Wunderground v.1.15,2013-03-14 00:11:00,
2013-03-13 20:16:00,27.6,20.7,30.23,WNW,300,5.0,6.0,75,0.00,,,0.02,Wunderground v.1.15,2013-03-14 00:16:00,
2013-03-13 20:22:00,27.7,21.1,30.24,WNW,302,5.0,5.0,76,0.00,,,0.02,Wunderground v.1.15,2013-03-14 00:22:00,
2013-03-13 20:28:00,27.7,21.1,30.24,NW,307,5.0,8.0,76,0.00,,,0.02,Wunderground v.1.15,2013-03-14 00:28:00,
2013-03-13 20:33:00,27.7,21.1,30.24,NW,309,5.0,7.0,76,0.00,,,0.02,Wunderground v.1.15,2013-03-14 00:33:00,
2013-03-13 20:39:00,27.6,21.0,30.24,NW,304,6.0,7.0,76,0.00,,,0.02,Wunderground v.1.15,2013-03-14 00:39:00,
2013-03-13 20:44:00,27.5,20.9,30.24,WNW,286,4.0,5.0,76,0.00,,,0.02,Wunderground v.1.15,2013-03-14 00:44:00,
2013-03-13 20:50:00,27.6,21.3,30.24,NW,304,5.0,7.0,77,0.00,,,0.02,Wunderground v.1.15,2013-03-14 00:50:00,
2013-03-13 20:56:00,27.5,20.9,30.24,NW,322,6.0,9.0,76,0.00,,,0.02,Wunderground v.1.15,2013-03-14 00:56:00,
2013-03-13 21:01:00,27.5,20.9,30.24,NW,306,5.0,6.0,76,0.00,,,0.02,Wunderground v.1.15,2013-03-14 01:01:00,
2013-03-13 21:06:00,27.5,20.6,30.24,WNW,292,6.0,9.0,75,0.00,,,0.02,Wunderground v.1.15,2013-03-14 01:06:00,
2013-03-13 21:12:00,27.5,20.9,30.24,NW,319,7.0,10.0,76,0.00,,,0.02,Wunderground v.1.15,2013-03-14 01:12:00,
2013-03-13 21:18:00,27.4,21.1,30.25,NW,316,7.0,10.0,77,0.00,,,0.02,Wunderground v.1.15,2013-03-14 01:18:00,
2013-03-13 21:24:00,27.2,21.5,30.25,NW,323,5.0,7.0,79,0.00,,,0.02,Wunderground v.1.15,2013-03-14 01:24:00,
2013-03-13 21:30:00,26.9,21.8,30.25,NW,315,4.0,4.0,81,0.00,,,0.02,Wunderground v.1.15,2013-03-14 01:30:00,
2013-03-13 21:35:00,26.8,21.8,30.25,NW,307,3.0,4.0,81,0.00,,,0.02,Wunderground v.1.15,2013-03-14 01:35:00,
2013-03-13 21:41:00,26.7,21.7,30.25,WNW,296,3.0,3.0,81,0.00,,,0.02,Wunderground v.1.15,2013-03-14 01:41:00,
2013-03-13 21:47:00,26.6,21.6,30.25,NW,306,4.0,6.0,81,0.00,,,0.02,Wunderground v.1.15,2013-03-14 01:47:00,
2013-03-13 21:52:00,26.6,21.3,30.25,WNW,303,4.0,4.0,80,0.00,,,0.02,Wunderground v.1.15,2013-03-14 01:52:00,
2013-03-13 21:58:00,26.7,21.4,30.25,NNW,333,5.0,8.0,80,0.00,,,0.02,Wunderground v.1.15,2013-03-14 01:58:00,
2013-03-13 22:03:00,26.8,21.2,30.25,NW,307,5.0,7.0,79,0.00,,,0.02,Wunderground v.1.15,2013-03-14 02:03:00,
2013-03-13 22:09:00,26.9,21.3,30.25,NW,309,5.0,8.0,79,0.00,,,0.02,Wunderground v.1.15,2013-03-14 02:09:00,
2013-03-13 22:14:00,26.9,21.0,30.25,NW,304,6.0,10.0,78,0.00,,,0.02,Wunderground v.1.15,2013-03-14 02:14:00,
2013-03-13 22:19:00,26.9,21.0,30.25,NW,307,6.0,10.0,78,0.00,,,0.02,Wunderground v.1.15,2013-03-14 02:19:00,
2013-03-13 22:25:00,26.9,20.7,30.25,NW,311,6.0,10.0,77,0.00,,,0.02,Wunderground v.1.15,2013-03-14 02:25:00,
2013-03-13 22:30:00,27.0,20.1,30.25,NW,309,6.0,6.0,75,0.00,,,0.02,Wunderground v.1.15,2013-03-14 02:30:00,
2013-03-13 22:36:00,27.0,19.8,30.26,NW,304,6.0,8.0,74,0.00,,,0.02,Wunderground v.1.15,2013-03-14 02:36:00,
2013-03-13 22:42:00,26.9,19.7,30.26,NW,307,6.0,6.0,74,0.00,,,0.02,Wunderground v.1.15,2013-03-14 02:42:00,
2013-03-13 22:47:00,26.9,20.0,30.26,WNW,297,5.0,6.0,75,0.00,,,0.02,Wunderground v.1.15,2013-03-14 02:47:00,
2013-03-13 22:52:00,27.0,20.4,30.26,NW,310,5.0,5.0,76,0.00,,,0.02,Wunderground v.1.15,2013-03-14 02:52:00,
2013-03-13 22:58:00,27.1,20.5,30.26,NW,316,4.0,8.0,76,0.00,,,0.02,Wunderground v.1.15,2013-03-14 02:58:00,
2013-03-13 23:03:00,27.1,20.5,30.26,NW,309,5.0,8.0,76,0.00,,,0.02,Wunderground v.1.15,2013-03-14 03:03:00,
2013-03-13 23:09:00,27.2,20.6,30.26,NW,310,6.0,9.0,76,0.00,,,0.02,Wunderground v.1.15,2013-03-14 03:09:00,
2013-03-13 23:14:00,27.1,20.5,30.27,NW,309,5.0,6.0,76,0.00,,,0.02,Wunderground v.1.15,2013-03-14 03:14:00,
2013-03-13 23:20:00,27.0,20.4,30.27,NW,325,4.0,4.0,76,0.00,,,0.02,Wunderground v.1.15,2013-03-14 03:20:00,
2013-03-13 23:25:00,27.0,20.4,30.27,WNW,295,4.0,8.0,76,0.00,,,0.02,Wunderground v.1.15,2013-03-14 03:25:00,
2013-03-13 23:31:00,26.8,19.0,30.27,WNW,301,6.0,9.0,72,0.00,,,0.02,Wunderground v.1.15,2013-03-14 03:31:00,
2013-03-13 23:36:00,26.6,18.8,30.27,NW,317,6.0,12.0,72,0.00,,,0.02,Wunderground v.1.15,2013-03-14 03:36:00,
2013-03-13 23:42:00,26.3,18.8,30.27,NW,308,5.0,6.0,73,0.00,,,0.02,Wunderground v.1.15,2013-03-14 03:42:00,
2013-03-13 23:47:00,26.2,18.7,30.28,NW,308,4.0,6.0,73,0.00,,,0.02,Wunderground v.1.15,2013-03-14 03:47:00,
2013-03-13 23:53:00,26.0,18.5,30.28,NW,310,4.0,7.0,73,0.00,,,0.02,Wunderground v.1.15,2013-03-14 03:53:00,
2013-03-13 23:59:00,25.9,18.4,30.28,NW,325,4.0,7.0,73,0.00,,,0.02,Wunderground v.1.15,2013-03-14 03:59:00,